EDT,Max TemperatureF,Mean TemperatureF,Min TemperatureF,Max Dew PointF,MeanDew PointF,Min DewpointF,Max Humidity, Mean Humidity, Min Humidity, Max Sea Level PressureIn, Mean Sea Level PressureIn, Min Sea Level PressureIn, Max VisibilityMiles, Mean VisibilityMiles, Min VisibilityMiles, Max Wind SpeedMPH, Mean Wind SpeedMPH, Max Gust SpeedMPH,PrecipitationIn, CloudCover, Events, WindDirDegrees
2013-8-1,89,82,74,78,74,72,100,88,68,30.04,30.00,29.96,,,,10,2,14,0.18,,,190
2013-8-2,91,82,72,76,73,71,100,78,59,30.05,30.00,29.95,,,,9,2,14,0.08,,,226
2013-8-3,92,83,74,77,75,72,97,78,56,30.08,30.04,30.00,,,,14,4,21,0.08,,,243
2013-8-4,92,84,76,78,77,75,97,82,64,30.06,30.02,29.96,,,,20,4,25,0.32,,,271
2013-8-5,93,86,78,78,77,74,97,81,64,30.02,29.97,29.92,,,,10,2,15,0.08,,,275
2013-8-6,92,84,76,79,76,73,97,83,60,29.99,29.95,29.90,,,,13,2,15,0.00,,,70
2013-8-7,94,85,75,78,75,74,100,84,56,30.00,29.96,29.93,,,,13,2,18,0.07,,,80
2013-8-8,92,84,76,77,75,72,100,83,52,30.05,29.99,29.95,,,,15,3,23,1.29,,,112
2013-8-9,93,83,73,76,73,70,94,79,52,30.09,30.04,29.99,,,,10,3,14,0.03,,,97
2013-8-10,91,82,73,74,72,69,100,73,52,30.14,30.10,30.06,,,,13,3,18,0.00,,,179
2013-8-11,94,85,76,78,75,73,94,76,56,30.16,30.12,30.08,,,,12,2,14,0.00,,,228
2013-8-12,96,85,73,77,74,69,94,76,42,30.13,30.08,30.02,,,,13,3,18,0.00,,,291
2013-8-13,94,84,74,76,74,70,100,75,46,30.05,30.00,29.94,,,,13,3,16,0.00,,,261
2013-8-14,93,84,75,77,75,73,94,76,52,29.99,29.95,29.91,,,,15,4,20,0.03,,,233
2013-8-15,92,83,74,77,74,72,94,78,52,30.02,29.97,29.94,,,,16,5,22,0.01,,,200
2013-8-16,87,81,74,77,74,73,100,89,74,30.05,30.01,29.97,,,,15,3,18,1.33,,,163
2013-8-17,88,81,74,78,75,72,100,87,68,30.14,30.05,29.99,,,,13,3,21,0.95,,,139
2013-8-18,92,83,73,77,74,72,100,87,64,30.11,30.08,30.04,,,,16,2,22,0.43,,,125
2013-8-19,89,81,73,78,75,72,100,87,68,30.08,30.04,29.99,,,,15,3,20,0.67,,,206
2013-8-20,93,83,72,77,73,70,100,84,59,30.12,30.06,30.00,,,,16,4,23,0.11,,,67
2013-8-21,90,81,71,77,73,70,100,89,70,30.15,30.11,30.07,,,,16,2,25,0.18,,,61
2013-8-22,87,79,71,78,74,70,100,92,82,30.13,30.08,30.03,,,,17,3,22,2.65,,,63
2013-8-23,87,80,72,77,73,71,100,90,65,30.05,30.02,29.99,,,,15,3,22,0.29,,,55
2013-8-24,88,80,72,76,73,71,100,87,70,30.14,30.08,30.02,,,,9,3,31,0.03,,,66
2013-8-25,88,81,74,74,73,71,100,83,63,30.22,30.16,30.13,,,,13,6,21,0.02,,,56
2013-8-26,90,81,71,74,71,68,94,76,50,30.19,30.13,30.06,,,,10,5,16,0.13,,,50
2013-8-27,91,82,73,74,73,70,100,81,49,30.10,30.05,30.00,,,,14,4,16,0.85,,,64
2013-8-28,88,80,72,74,72,68,100,78,53,30.07,30.03,29.99,,,,13,3,21,0.01,,,223
2013-8-29,93,83,73,76,73,70,94,76,49,30.04,30.00,29.94,,,,13,3,20,0.02,,,283
2013-8-30,92,84,75,77,75,72,94,77,56,29.99,29.94,29.88,,,,13,4,16,0.02,,,279
2013-8-31,90,81,72,75,73,70,100,79,59,29.96,29.92,29.88,,,,13,3,16,0.02,,,255